STARLINK-30165, 57457

Orbit data source: Space-Track

STARLINK-30165, 57457 is a payload satellite owned by SpaceX/Seattle (US) in LEO that was launched on Fri, 28 Jul 2023 UTC via an FALCON 9 launch vehicle from the Air Force Eastern Test Range (AFETR). Payload-class satellites include a variety of spacecraft equipped with specific instruments for various scientific and technological missions. These include communications satellites like Starlink; space stations such as the ISS; scientific satellites like the Hubble; Earth observation satellites from companies like Planet Labs, Umbra, and HawkEye 360; GPS; miniature CubeSats for education and research; and military/defense satellites.

Loading next visibility...
Identifier
57457, 2023-107A
Orbit
LEO
Country
Flag of USUS
Related business
Manufacturer
SpaceX/Seattle
Mission
Operational Commercial Communications
Bus & Motor
STARLINK V2M, Unknown motor
Mass
730 kg wet, ~700 kg dry
Launch date (UTC)
2023-07-28 (3 years ago)
Launch vehicle
FALCON 9
Launch site
Air Force Eastern Test Range (AFETR)
Object type
Payload
Rocket body
Debris
Shape & HBR
Box + 2 Pan, 17.7 m
Radar Cross Section
33.884 m², Large (>1 m²)

Expand to show TLE details & history
Last TLE update: 2 days ago

TLE from 2 days ago
0 STARLINK-30165
1 57457U 23107A   26171.27314409  .00002784  00000-0  11064-3 0  9994
2 57457  43.0010 116.9645 0001221 265.7511  94.3201 15.27587077160828
Epoch: 2026-06-20T06:33Z
TLE epoch observation values (Epoch: 2026-06-20T06:33:19.649Z)
Latitude
-0.00002°
Longitude
110.14247°
Altitude
482.867 km
Speed
7.626 km/s
True Right ascension
07h 47m 51s
True Declination
0° 00' 00"
Sunlit
Object was in daylight at epoch
Visualization orbit readout
Latitude
Unknown
Longitude
Unknown
Altitude
Unknown
Speed
Unknown
Apparent Right ascension
Unknown
Apparent Declination
Unknown
Sunlit
N/A
Visualization observer readout
Local Sidereal Time
21:33:20
Azimuth
Unknown
Elevation
Unknown
Doppler factor
Unknown
Orbital elements
Apogee altitude
485.811 km
Perigee altitude
484.135 km
Semi-major axis
6,863.11 km
Eccentricity
0.00012
Inclination
43.001°
RAAN
116.9645°
Arg. of periapsis
265.7511°
True anomaly
94.33405°
Mean anomaly
94.3201°
Eccentric anomaly
94.32708°
Mean motion
3.81735 °/min
Orbital period
94.31 mins
BSTAR
0.00011064
Loading maneuver chart data...
Computing Atmospheric mass density...

Documentation

Showing up to 5 results
|